Location: Newport
(44.6370°N, 124.0520°W)
Time: 13:52:37
(UTC-08:00)

OTV 5 (USA 277) - Pass Details

Date: 12 October 2017
Orbit: 404 x 417 km, 43.0° (Epoch: 07 September)

Event Time Altitude Azimuth Distance (km) Brightness Sun altitude
Rises 21:20:14 0° 266° (W) 2,354 ? -29.6°
Reaches altitude 10° 21:22:21 10° 263° (W) 1,490 ? -30.0°
Enters shadow 21:22:41 12° 263° (W) 1,356 ? -30.0°
